Weather History for Walla Walla, WA

Change the Weather History Date:

Saturday, June 14, 2014

  Actual Average Record
Temperature  
Mean Temperature 62 °F -  
Max Temperature 73 °F 80 °F 102 °F (1987)
Min Temperature 51 °F 54 °F 43 °F (1954)
Degree Days  
Heating Degree Days 4    
Growing Degree Days 12 (Base 50)    
Moisture  
Dew Point 42 °F    
Average Humidity 55    
Maximum Humidity 86    
Minimum Humidity 29    
Precipitation  
Precipitation 0.02 in - - ()
Sea Level Pressure  
Sea Level Pressure 29.99 in    
Wind  
Wind Speed 14 mph (SSW)    
Max Wind Speed 18 mph    
Max Gust Speed 26 mph    
Visibility 10 miles    
Events Rain    
Averages and records for this station are not official NWS values.
T = Trace of Precipitation, MM = Missing Value Source: NWS Daily Summary

Daily Weather History Graph

Daily Weather History Graph

Search for Another Location

Airport:

Trip Planner

Search our weather history database for the weather conditions in past years. The results will help you decide how hot, cold, wet, or windy it might be!

Date:

Astronomy

Jun. 14, 2014 Rise Set
Actual Time 5:01 AM PDT 8:45 PM PDT
Civil Twilight 4:22 AM PDT 9:24 PM PDT
Nautical Twilight 3:30 AM PDT 10:16 PM PDT
Astronomical Twilight 2:18 AM PDT 11:29 PM PDT
Moon 10:05 PM PDT (6/14) 6:56 AM PDT (6/14)
Length of Visible Light 17h 01m
Length of Day
15h 44m
Waning Gibbous, 96% of the Moon is Illuminated
Jun 14
Waning Gibbous
Jun 19
Last Quarter
Jun 27
New
Jul 5
First Quarter
Jul 12
Full

Hourly Weather History & Observations

Time (PDT) Temp. Dew Point Humidity Pressure Visibility Wind Dir Wind Speed Gust Speed Precip Events Conditions
12:53 AM 52.0 °F 48.0 °F 86% 30.02 in 7.0 mi South 15.0 mph - 0.01 in Rain Light Rain
1:53 AM 51.1 °F 46.9 °F 86% 30.03 in 8.0 mi South 16.1 mph - 0.00 in Rain Light Rain
2:53 AM 52.0 °F 46.9 °F 83% 30.03 in 10.0 mi South 13.8 mph - 0.01 in Rain Light Rain
3:53 AM 51.1 °F 46.0 °F 83% 30.04 in 10.0 mi South 15.0 mph - 0.00 in   Overcast
4:53 AM 51.1 °F 45.0 °F 80% 30.04 in 10.0 mi South 13.8 mph - 0.00 in Rain Light Rain
5:53 AM 51.1 °F 44.1 °F 77% 30.06 in 10.0 mi South 12.7 mph - 0.00 in   Overcast
6:53 AM 51.1 °F 42.1 °F 71% 30.06 in 10.0 mi South 13.8 mph - N/A   Overcast
7:53 AM 53.1 °F 42.1 °F 66% 30.06 in 10.0 mi SSW 11.5 mph - N/A   Overcast
8:53 AM 55.0 °F 41.0 °F 59% 30.06 in 10.0 mi South 16.1 mph 21.9 mph N/A   Overcast
9:53 AM 57.9 °F 41.0 °F 53% 30.05 in 10.0 mi SSW 16.1 mph 21.9 mph N/A   Overcast
10:53 AM 63.0 °F 41.0 °F 45% 30.04 in 10.0 mi SW 18.4 mph 26.5 mph N/A   Partly Cloudy
11:53 AM 64.0 °F 41.0 °F 43% 30.03 in 10.0 mi SW 13.8 mph 21.9 mph N/A   Mostly Cloudy
12:53 PM 66.0 °F 39.0 °F 37% 30.01 in 10.0 mi SW 12.7 mph 20.7 mph N/A   Mostly Cloudy
2:53 PM 71.1 °F 37.9 °F 30% 29.97 in 10.0 mi WSW 15.0 mph 23.0 mph N/A   Clear
3:53 PM 71.1 °F 37.0 °F 29% 29.96 in 10.0 mi WSW 11.5 mph 21.9 mph N/A   Clear
4:53 PM 72.0 °F 37.9 °F 29% 29.94 in 10.0 mi SSW 8.1 mph 20.7 mph N/A   Clear
5:53 PM 72.0 °F 37.9 °F 29% 29.92 in 10.0 mi SW 10.4 mph 21.9 mph N/A   Clear
6:53 PM 70.0 °F 39.0 °F 32% 29.91 in 10.0 mi WSW 8.1 mph 17.3 mph N/A   Clear
7:53 PM 68.0 °F 41.0 °F 37% 29.90 in 10.0 mi WSW 8.1 mph - N/A   Clear
8:53 PM 64.0 °F 43.0 °F 46% 29.90 in 10.0 mi WSW 9.2 mph - N/A   Clear
9:53 PM 60.1 °F 44.1 °F 55% 29.91 in 10.0 mi South 9.2 mph - N/A   Clear
10:53 PM 59.0 °F 44.1 °F 58% 29.91 in 10.0 mi South 13.8 mph - N/A   Clear
11:53 PM 57.9 °F 43.0 °F 58% 29.91 in 10.0 mi SSW 12.7 mph - N/A   Clear